TimeEST,TemperatureF,Dew PointF,Humidity,Sea Level PressureIn,VisibilityMPH,Wind Direction,Wind SpeedMPH,Gust SpeedMPH,PrecipitationIn,Events,Conditions,WindDirDegrees,DateUTC
12:52 AM,37.9,33.1,83,29.90,10.0,NW,4.6,-,N/A,,Clear,310,2013-02-14 05:52:00
1:52 AM,37.0,32.0,82,29.91,10.0,NNW,4.6,-,N/A,,Clear,330,2013-02-14 06:52:00
2:52 AM,33.1,30.0,89,29.92,10.0,North,3.5,-,N/A,,Clear,350,2013-02-14 07:52:00
3:52 AM,34.0,30.0,85,29.94,10.0,Calm,Calm,-,N/A,,Clear,0,2013-02-14 08:52:00
4:52 AM,33.1,30.0,89,29.96,10.0,Calm,Calm,-,N/A,,Clear,0,2013-02-14 09:52:00
5:52 AM,30.9,28.0,89,29.98,10.0,Calm,Calm,-,N/A,,Clear,0,2013-02-14 10:52:00
6:52 AM,33.1,28.9,85,29.99,10.0,North,4.6,-,N/A,,Partly Cloudy,360,2013-02-14 11:52:00
7:52 AM,32.0,28.9,88,30.03,10.0,Calm,Calm,-,N/A,,Scattered Clouds,0,2013-02-14 12:52:00
8:52 AM,39.0,34.0,82,30.05,10.0,Calm,Calm,-,N/A,,Scattered Clouds,0,2013-02-14 13:52:00
9:52 AM,42.1,33.1,70,30.06,10.0,North,5.8,-,N/A,,Mostly Cloudy,350,2013-02-14 14:52:00
10:52 AM,45.0,30.9,58,30.07,10.0,Calm,Calm,-,N/A,,Clear,0,2013-02-14 15:52:00
11:52 AM,46.0,30.9,56,30.07,10.0,SSW,3.5,-,N/A,,Mostly Cloudy,210,2013-02-14 16:52:00
12:52 PM,48.0,30.9,52,30.04,10.0,SSW,6.9,-,N/A,,Mostly Cloudy,210,2013-02-14 17:52:00
1:52 PM,51.1,33.1,50,30.02,10.0,Variable,5.8,-,N/A,,Mostly Cloudy,0,2013-02-14 18:52:00
2:52 PM,50.0,32.0,50,30.01,10.0,SSW,6.9,-,N/A,,Mostly Cloudy,200,2013-02-14 19:52:00
3:52 PM,50.0,33.1,52,30.01,10.0,SSW,11.5,-,N/A,,Mostly Cloudy,210,2013-02-14 20:52:00
4:52 PM,50.0,30.9,48,30.01,10.0,SW,5.8,-,N/A,,Mostly Cloudy,220,2013-02-14 21:52:00
5:52 PM,48.9,30.9,50,30.00,10.0,Calm,Calm,-,N/A,,Scattered Clouds,0,2013-02-14 22:52:00
6:52 PM,46.0,33.1,61,30.02,10.0,SW,3.5,-,N/A,,Partly Cloudy,220,2013-02-14 23:52:00
7:52 PM,42.1,32.0,67,30.03,10.0,South,3.5,-,N/A,,Clear,190,2013-02-15 00:52:00
8:52 PM,39.9,32.0,73,30.04,10.0,South,3.5,-,N/A,,Clear,180,2013-02-15 01:52:00
9:52 PM,37.9,33.1,83,30.07,10.0,South,5.8,-,N/A,,Clear,180,2013-02-15 02:52:00
10:52 PM,39.9,34.0,79,30.06,10.0,South,5.8,-,N/A,,Clear,180,2013-02-15 03:52:00
11:52 PM,37.0,33.1,86,30.07,10.0,South,3.5,-,N/A,,Clear,170,2013-02-15 04:52:00